Voltar ao catálogo

STARLINK-6282

AtivoComunicaçõesVLEO
NORAD 56407·PAYLOAD·🇺🇸 United States

Lançado May 4, 2023 de Cape Canaveral Space Force Station

Loading…

Próximas Passagens (próximas 24 horas)

TLE

AtualizadoSource: CelesTrak SupGP

Época: Sep 14, 2026, 21:12 UTC

1 56407C 23061AK  26257.88381944 -.00002070  00000+0 -74930-4 0  2575
2 56407  43.0002 198.7251 0001316 259.2229 241.6064 15.27593766    13

Acompanhe STARLINK-6282 em tempo real com AllMySat

Download on the App Store